This demonstration page uses our WeatherBlox Daily Observations layout. Learn more.

Left ArrowRight Arrow

40.97296, -117.73568

Hourly Observations for March 10, 2016

Temp ( °F °C ) Dew Point ( °F °C ) Humidity (%) Winds ( mph kmh ) Pressure ( in mb ) Visibility ( mi km ) Precip ( " mm )
12:56 am 00:56 Clear 45 7.2 34 1.1 66 66 S 17 28 29.98 1015 10 16 0.00 0.00
1:56 am 01:56 Clear 47 8.3 34 1.1 61 61 S 18 30 29.95 1014 10 16 0.00 0.00
2:56 am 02:56 Clear 48 8.9 33 0.6 56 56 S 16 26 29.95 1014 10 16 0.00 0.00
3:56 am 03:56 Clear 49 9.4 32 0 52 52 S 17 28 29.92 1013 10 16 0.00 0.00
4:56 am 04:56 Clear 45 7.2 32 0 61 61 S 15 24 29.91 1013 10 16 0.00 0.00
5:56 am 05:56 Clear 44 6.7 32 0 63 63 S 18 30 29.93 1013 10 16 0.00 0.00
6:56 am 06:56 Sunny 47 8.3 31 -0.6 54 54 S 18 30 29.92 1013 10 16 0.00 0.00
7:56 am 07:56 Sunny 51 10.6 32 0 48 48 S 15 24 29.91 1013 10 16 0.00 0.00
8:56 am 08:56 Sunny 57 13.9 33 0.6 41 41 S 17 28 29.91 1013 10 16 0.00 0.00
9:56 am 09:56 Sunny 63 17.2 30 -1.1 29 29 S 17 28 29.90 1012 10 16 0.00 0.00
10:35 am 10:35 Mostly Cloudy 63 17 30 -1 30 30 WSW 13 20 29.80 1009 10 16 0.00 0.00
10:56 am 10:56 Mostly Cloudy 61 16.1 31 -0.6 32 32 WSW 15 24 29.90 1013 10 16 0.00 0.00
11:56 am 11:56 Mostly Cloudy 66 18.9 29 -1.7 25 25 SSW 21 33 29.91 1013 10 16 0.00 0.00
12:56 pm 12:56 Cloudy 63 17.2 30 -1.1 29 29 SW 15 24 29.89 1012 10 16 0.00 0.00
1:56 pm 13:56 Cloudy 63 17.2 31 -0.6 30 30 WSW 16 26 29.86 1011 10 16 0.00 0.00
2:56 pm 14:56 Mostly Cloudy 62 16.7 35 1.7 37 37 WNW 17 28 29.88 1012 10 16 0.00 0.00
3:56 pm 15:56 Cloudy 58 14.4 35 1.7 42 42 WNW 7 11 29.87 1011 10 16 0.00 0.00
4:56 pm 16:56 Cloudy 56 13.3 35 1.7 46 46 NNE 3 6 29.89 1012 10 16 0.00 0.00
5:56 pm 17:56 Cloudy 54 12.2 34 1.1 47 47 W 15 24 29.95 1014 10 16 0.00 0.00
6:56 pm 18:56 Cloudy with Light Rain 48 8.9 40 4.4 74 74 W 5 7 29.98 1015 10 16 0.00 0.03
7:56 pm 19:56 Cloudy with Light Rain 46 7.8 42 5.6 86 86 Calm 30.01 1016 10 16 0.00 0.03
8:56 pm 20:56 Cloudy with Light Rain 45 7.2 43 6.1 93 93 W 3 6 30.01 1016 10 16 0.02 0.51
9:56 pm 21:56 Cloudy with Light Rain 44 6.7 43 6.1 96 96 Calm 30.00 1016 10 16 0.03 0.76
10:56 pm 22:56 Cloudy with Light Rain 44 6.7 42 5.6 93 93 NE 8 13 29.95 1014 10 16 0.01 0.25
11:56 pm 23:56 Mostly Cloudy 44 6.7 41 5 89 89 NNE 14 22 29.91 1013 10 16 0.00 0.03

Powered by AerisWeather